Regional Weather Roundup
Issued by NWS Huntsville, AL

Home | Current Version | Previous Version | Text Only | Print | Product List | Glossary On
Versions: 1 2 3 4 5 6 7 8 9 10 11 12 13 14 15 16 17 18 19 20 21 22 23 24 25 26 27 28 29 30 31 32 33 34 35 36 37 38 39 40 41 42 43 44 45 46 47 48 49
000
ASUS44 KHUN 281710
RWRHUN

WEATHER ROUNDUP FOR THE TENNESSEE VALLEY
NATIONAL WEATHER SERVICE HUNTSVILLE AL
1100 AM CST SUN DEC 28 2014

ALZ001>004-281800-
NORTHWEST ALABAMA

CITY           SKY/WX    TMP DP  RH WIND       PRES   REMARKS
SHOALS AIRPORT CLOUDY    48  44  86 N6        30.14F
SHOALS TVA RES   N/A     46 N/A N/A MISG        N/A
$$

ALZ005>007-016-281800-
NORTH CENTRAL ALABAMA

CITY           SKY/WX    TMP DP  RH WIND       PRES   REMARKS
DECATUR AP     CLOUDY    52  49  89 N8        30.11F
HUNTSVILLE AP  CLOUDY    55  53  93 N6        30.11F
HUN NWS/UAH      N/A     53  49  85 N3          N/A
MERIDIANVILLE  CLOUDY    46  43  87 N12       30.12F
REDSTONE ARSN  CLOUDY    54  52  94 N6        30.11F
VINEMONT AP    CLOUDY    52  51  97 N5        30.12S
$$

ALZ008>010-281800-
NORTHEAST ALABAMA

CITY           SKY/WX    TMP DP  RH WIND       PRES   REMARKS
ALBERTVILLE    LGT RAIN  55  55 100 CALM      30.08F
FORT PAYNE     CLOUDY    55  54  94 CALM      30.08F FOG
SCOTTSBORO AP  CLOUDY    55  55 100 N6        30.10S
VALLEY HEAD      N/A     55 N/A N/A MISG        N/A
$$

TNZ076-096-097-281800-
SOUTHEASTERN MIDDLE TENNESSEE

CITY           SKY/WX    TMP DP  RH WIND       PRES   REMARKS
TULLAHOMA      CLOUDY    41  41 100 N6        30.12F
WINCHESTER     CLOUDY    46  46 100 NW6       30.12F
$$

...SURROUNDING SITES...

CITY           SKY/WX    TMP DP  RH WIND       PRES   REMARKS
ATLANTA        CLOUDY    58  56  93 W7        30.09F
ANNISTON       CLOUDY    58  57  97 CALM      30.09F FOG
BIRMINGHAM     CLOUDY    58  57  97 NW5       30.11F FOG
CHATTANOOGA    LGT RAIN  55  54  96 N5        30.09F FOG
DALTON         CLOUDY    54  54 100 SE5       30.08F FOG
GADSDEN        CLOUDY    57  55  94 SW5       30.09S
GOLDEN TRNGL   CLOUDY    48  45  87 NW12      30.15R
HALEYVILLE     CLOUDY    49  49 100 CALM      30.13F
JACKSON TN     CLOUDY    40  36  86 N8        30.20F WCI  34
LEWISBURG      CLOUDY    43  41  93 N5        30.15F
MEMPHIS        LGT RAIN  40  36  86 N8        30.22S WCI  34
MURFREESBORO   CLOUDY    42  41  97 N3        30.16S
NASHVILLE      LGT RAIN  41  39  93 N8        30.17S
OXFORD MS      CLOUDY    39  37  93 N6        30.21S WCI  35
ROME           CLOUDY    57  56  96 S3        30.07F
SAVANNAH       CLOUDY    41  41 100 N6        30.16F
TUPELO         CLOUDY    45  41  86 NE10      30.16F
TUSCALOOSA     CLOUDY    60  57  89 NW7       30.09F
$$

...GULF COAST WEATHER...

CITY           SKY/WX    TMP DP  RH WIND       PRES   REMARKS
GULFPORT       MOSUNNY   74  68  81 NW6       30.06F
PASCAGOULA     FOG       67  67 100 CALM      30.09F VSB 1/2
MOBILE         PTSUNNY   69  67  93 W3        30.09F
GULF SHORES    CLOUDY    69  68  96 W5        30.10F
DESTIN         CLOUDY    72  69  90 VRB6      30.09F
PANAMA CITY    PTSUNNY   73  73  99 S13       30.12F
APPALACHICOLA  PTSUNNY   74  66  76 S12       30.13F
$$




USA.gov is the U.S. government's official web portal to all federal, state and local government web resources and services.